Location: Stoke Bliss
(52.2667°N, 2.5167°W)
Time: 20:20:08
(UTC+00:00)

Cosmos 1898 Rocket - Pass Details

Date: 03 March 2021
Orbit: 753 x 784 km, 74.0° (Epoch: 15 April)

Event Time Altitude Azimuth Distance (km) Brightness Sun altitude
Rises 19:50:02 0° 337° (NNW) 3,227 7.3 -18.5°
Reaches altitude 10° 19:52:41 10° 349° (NNW) 2,302 6.3 -18.9°
Maximum altitude 19:57:17 30° 50° (NE) 1,345 4.4 -19.6°
Enters shadow 19:57:52 29° 63° (ENE) 1,366 4.4 -19.7°
